Tracking 25703 objects as of 2-Jul-2022
HD Live streaming from Space Station
objects crossing your sky now

DRUMS

Track DRUMS now!
10-day predictions


NORAD ID: 49401
Int'l Code: 2021-102G
Perigee: 549.8 km
Apogee: 579.9 km
Inclination: 97.5 °
Period: 95.8 minutes
Semi major axis: 6935 km
RCS: Unknown
Launch date: November 9, 2021
Source: Japan (JPN)
Launch site: KAGOSHIMA SPACE CENTER UNIVERSITY OF TOKYO (KSCUT)
aabbcc
Your satellite tracking list
Your tracking list is empty




NASA's NSSDC Master Catalog

Two Line Element Set (TLE):
1 49401U 21102G   22182.75944768  .00000652  00000-0  52740-4 0  9994
2 49401  97.5370 241.2666 0021728 168.3652 191.8080 15.02981037 35246
Source of the keplerian elements: AFSPC